Cosmos 1455 Rocket - Orbit

View from above orbital plane
View from above orbital plane
View from above satellite
View from above satellite

Ground track
Ground track

The orbit data is extracted from the following two-line orbital elements,

1 14033U 83037B   13141.82596858  .00000350  00000-0  40320-4 0  4584
2 14033 082.5067 302.4506 0017060 339.4195 136.5771 14.82780357259123
Epoch (UTC): 21 May 2013 19:49:23
Eccentricity: 0.0017060
inclination: 82.5067°
perigee height: 608 km
apogee height: 632 km
right ascension of ascending node: 302.4506°
argument of perigee: 339.4195°
revolutions per day: 14.82780357
mean anomaly at epoch: 136.5771°
orbit number at epoch: 25912

The dashed part of the orbit path shows where the satellite is in the earth's shadow,  

Developed and maintained by Chris Peat, Heavens-Above GmbH. Please read the updated FAQ before sending e-mail. Imprint. DLR